STARLINK-34824 (65042 NORAD) Tracking and Keplerian Element Data

This shows tracking and keplerian element data for the satellite.

Feedback or suggestion? Click here.




ElementValue
Catalog65042
NameSTARLINK-34824
Epoch Orbit2205
Epoch Day354.14371052
Epoch Year2025
RAAN303.4966
Inclination53.1605
Eccentricity0.0001236
Argument of Perigee63.6981
Mean Anonmoly296.4147
Mean Motion15.30213449
Decay Rate0.00030074
L11 65042U 25161AD 25354.14371052 .00030074 00000+0 10230-2 0 9995
L22 65042 53.1605 303.4966 0001236 63.6981 296.4147 15.30213449 22059



Live tracking and technical data element details for STARLINK-34824 (NORAD 65042). STARLINK-34824 can be tracked NOW for your location showing map with azimuth and elevation plus other details from your city location.







IsCatalogInMostPopularTable: catalog: 65042, numindb: 7
Update: records affected: 1



GetName: 65042 STARLINK-34824

Hit Count: updated at: Sat, 11 Apr 2026 21:47:12 GMT